| time (UTC) | temp F | wind direction | speed knots | gust knots | rain 1hr in | rain 24hr in | rain mn in | humidity % | barometer mb |
| 20260505011556 | 56 | 360 | 0.9 | 4.3 | 0.00 | 0.00 | 0.00 | 59 | 1007.0 |
| 20260505010115 | 57 | 360 | 0.0 | 1.7 | 0.00 | 0.00 | 0.00 | 59 | 1006.8 |
| 20260505004555 | 58 | 0 | 0.0 | 0.0 | 0.00 | 0.00 | 0.00 | 57 | 1006.5 |
| 20260505003059 | 60 | 360 | 0.9 | 2.6 | 0.00 | 0.00 | 0.00 | 53 | 1006.2 |
| 20260505001552 | 62 | 360 | 0.9 | 1.7 | 0.00 | 0.00 | 0.00 | 47 | 1005.9 |
| 20260505000052 | 64 | 0 | 0.0 | 0.0 | 0.00 | 0.00 | 0.00 | 41 | 1005.7 |
| 20260504234551 | 65 | 0 | 0.0 | 2.6 | 0.00 | 0.00 | 0.00 | 40 | 1005.6 |
| 20260504233055 | 67 | 360 | 0.0 | 7.0 | 0.00 | 0.00 | 0.00 | 37 | 1005.6 |
| 20260504231557 | 68 | 360 | 0.9 | 8.7 | 0.00 | 0.00 | 0.00 | 36 | 1005.3 |
| 20260504230053 | 68 | 360 | 1.7 | 7.8 | 0.00 | 0.00 | 0.00 | 35 | 1005.1 |
| 20260504224554 | 68 | 360 | 1.7 | 10.4 | 0.00 | 0.00 | 0.00 | 34 | 1005.0 |
| 20260504223101 | 69 | 360 | 1.7 | 11.3 | 0.00 | 0.00 | 0.00 | 34 | 1004.9 |
| 20260504221602 | 70 | 231 | 5.2 | 14.8 | 0.00 | 0.00 | 0.00 | 33 | 1004.8 |
| 20260504220057 | 70 | 239 | 3.5 | 13.9 | 0.00 | 0.00 | 0.00 | 33 | 1004.8 |
| 20260504214600 | 70 | 280 | 6.1 | 13.9 | 0.00 | 0.00 | 0.00 | 32 | 1004.8 |
| 20260504213103 | 70 | 360 | 3.5 | 10.4 | 0.00 | 0.00 | 0.00 | 35 | 1004.7 |
| 20260504211551 | 70 | 360 | 4.3 | 13.0 | 0.00 | 0.00 | 0.00 | 33 | 1004.6 |
| 20260504210051 | 70 | 360 | 6.1 | 14.8 | 0.00 | 0.00 | 0.00 | 34 | 1004.5 |
| 20260504204556 | 71 | 360 | 5.2 | 18.2 | 0.00 | 0.00 | 0.00 | 33 | 1004.6 |
| 20260504203054 | 71 | 360 | 4.3 | 16.5 | 0.00 | 0.00 | 0.00 | 35 | 1004.6 |
| 20260504201554 | 70 | 360 | 5.2 | 13.9 | 0.00 | 0.00 | 0.00 | 35 | 1004.7 |
| 20260504200055 | 70 | 360 | 4.3 | 13.0 | 0.00 | 0.00 | 0.00 | 37 | 1004.6 |
| 20260504194559 | 69 | 360 | 5.2 | 13.0 | 0.00 | 0.00 | 0.00 | 37 | 1004.7 |
| 20260504193103 | 68 | 360 | 4.3 | 10.4 | 0.00 | 0.00 | 0.00 | 39 | 1004.8 |
| 20260504191602 | 67 | 360 | 6.1 | 16.5 | 0.00 | 0.00 | 0.00 | 40 | 1004.9 |
| 20260504190053 | 66 | 360 | 1.7 | 8.7 | 0.00 | 0.00 | 0.00 | 40 | 1005.2 |
| 20260504184556 | 66 | 360 | 1.7 | 11.3 | 0.00 | 0.00 | 0.00 | 40 | 1005.3 |
| 20260504183057 | 66 | 360 | 5.2 | 15.6 | 0.00 | 0.00 | 0.00 | 38 | 1005.3 |
| 20260504181559 | 67 | 360 | 5.2 | 16.5 | 0.00 | 0.00 | 0.00 | 36 | 1005.1 |
| 20260504180054 | 67 | 360 | 5.2 | 17.4 | 0.00 | 0.00 | 0.00 | 36 | 1005.2 |
| 20260504174550 | 67 | 360 | 5.2 | 17.4 | 0.00 | 0.00 | 0.00 | 35 | 1005.0 |
| 20260504173054 | 68 | 360 | 7.8 | 19.1 | 0.00 | 0.00 | 0.00 | 35 | 1005.0 |
| 20260504171558 | 67 | 360 | 8.7 | 23.5 | 0.00 | 0.00 | 0.00 | 33 | 1005.0 |
| 20260504150111 | 64 | 360 | 2.6 | 13.9 | 0.00 | 0.00 | 0.00 | 44 | 1006.4 |
| 20260504081554 | 38 | 250 | 1.7 | 3.5 | 0.00 | 0.00 | 0.00 | 69 | 1008.4 |
| 20260504080110 | 38 | 248 | 0.9 | 3.5 | 0.00 | 0.00 | 0.00 | 68 | 1008.2 |
| 20260504044552 | 37 | 232 | 0.9 | 3.5 | 0.00 | 0.00 | 0.00 | 70 | 1008.0 |
| 20260504043051 | 38 | 232 | 0.9 | 2.6 | 0.00 | 0.00 | 0.00 | 69 | 1008.0 |
| 20260504041549 | 38 | 232 | 0.0 | 1.7 | 0.00 | 0.00 | 0.00 | 68 | 1007.9 |
| 20260504040114 | 38 | 0 | 0.0 | 2.6 | 0.00 | 0.00 | 0.00 | 68 | 1007.9 |
| 20260504034550 | 38 | 225 | 0.9 | 2.6 | 0.00 | 0.00 | 0.00 | 68 | 1007.8 |
| 20260504033050 | 38 | 0 | 0.0 | 1.7 | 0.00 | 0.00 | 0.00 | 68 | 1007.6 |
| 20260504031556 | 39 | 0 | 0.0 | 1.7 | 0.00 | 0.00 | 0.00 | 68 | 1007.7 |
| 20260504030050 | 39 | 0 | 0.0 | 0.0 | 0.00 | 0.00 | 0.00 | 67 | 1007.6 |
| 20260504024550 | 40 | 0 | 0.0 | 0.0 | 0.00 | 0.00 | 0.00 | 65 | 1007.6 |
| 20260504023100 | 41 | 0 | 0.0 | 0.0 | 0.00 | 0.00 | 0.00 | 63 | 1007.6 |
| 20260504021554 | 42 | 0 | 0.0 | 0.0 | 0.00 | 0.00 | 0.00 | 61 | 1007.7 |
| 20260504020048 | 42 | 0 | 0.0 | 0.0 | 0.00 | 0.00 | 0.00 | 60 | 1007.6 |
| 20260504014601 | 43 | 0 | 0.0 | 1.7 | 0.00 | 0.01 | 0.00 | 58 | 1007.5 |
| 20260504013051 | 44 | 0 | 0.0 | 1.7 | 0.00 | 0.01 | 0.00 | 57 | 1007.5 |